Regional Weather Roundup
Issued by NWS Charleston, SC

Current Version | Previous Version | Graphics & Text | Print | Product List | Glossary On
Versions: 1 2 3 4 5 6 7 8 9 10 11 12 13 14 15 16 17 18 19 20 21 22 23 24 25 26 27 28 29 30 31 32 33 34 35 36 37 38 39 40 41 42 43 44 45 46 47 48 49 50
000
ASUS42 KCHS 031927
RWRCHS
REGIONAL WEATHER ROUNDUP
NATIONAL WEATHER SERVICE CHARLESTON SC
300 PM EDT THU SEP 03 2015

NOTE: "FAIR" INDICATES FEW OR NO CLOUDS BELOW 12,000 FEET WITH NO
SIGNIFICANT WEATHER AND/OR OBSTRUCTIONS TO VISIBILITY.

NOT ALL STATIONS ARE QUALITY CONTROLLED BY THE NATIONAL
WEATHER SERVICE. USE DATA WITH CAUTION...ESPECIALLY
DEWPOINT OBSERVATIONS.

SCZ027-030-031-034>040-042>050-032000-
...SOUTHEAST SOUTH CAROLINA...

CITY           SKY/WX    TMP DP  RH WIND       PRES   REMARKS
N CHARLESTON   PTSUNNY   88  71  57 CALM      29.91F HX  94
WATERFRONT PRK   N/A     84  76  77 SE8       29.91F HX  93
MOUNT PLEASANT LGT RAIN  88  75  66 SE10      29.92F HX  97
JOHNS ISLAND   FAIR      86  73  66 SE7       29.93F HX  93
PINOPOLIS        N/A     91  75  59 VRB2      29.85F HX 102
MONCKS CORNER  FAIR      93  70  46 CALM      29.91F HX  99
SUMMERVILLE    MOCLDY    91  72  52 CALM      29.92F HX  98
BEAUFORT MCAS  CLOUDY    90  73  57 VRB3      29.93F HX  98
BEAUFORT ARPT  FAIR      86  77  74 CALM      29.92F HX  97
HILTON HEAD IS MOSUNNY   86  77  74 E7        29.95F HX  97
WALTERBORO     MOCLDY    91  72  52 W5        29.92F HX  98
ALLENDALE      FAIR      90  72  55 CALM      29.92S HX  96

...SOUTHERN MIDLANDS AND PEE DEE...

CITY           SKY/WX    TMP DP  RH WIND       PRES   REMARKS
GEORGETOWN     NOT AVBL
KINGSTREE      NOT AVBL
ORANGEBURG     CLOUDY    91  70  49 VRB5      29.93F HX  96
BARNWELL       FAIR      90  73  58 NW5       29.93F HX  98
AIKEN          FAIR      86  68  54 CALM      29.98F
MANNING        FAIR      88  68  51 NW3       29.92F HX  91
COLUMBIA       PTSUNNY   90  69  50 SW8       29.92F HX  94
SUMTER         MOSUNNY   93  70  47 CALM      29.90F HX  98
FLORENCE       PTSUNNY   91  73  55 VRB5      29.91F HX  99
MYRTLE BEACH   PTSUNNY   90  75  62 S12       29.93F HX 100
N MYRTLE BEACH SUNNY     86  76  71 SW13      29.90F HX  96

$$

GAZ063-065-086>088-099>101-113>116-118-119-134>141-150-032000-
...SOUTHEAST GEORGIA...

CITY           SKY/WX    TMP DP  RH WIND       PRES   REMARKS
SAVANNAH ARPT  CLOUDY    89  73  59 NW8       29.93F HX  97
HUNTER AAF     MOSUNNY   88  78  71 N6        29.91F HX 101
FORT STEWART   PTSUNNY   88  74  63 NE3       29.91F HX  97
STATESBORO     PTSUNNY   89  76  64 N3        29.93F HX 100
SYLVANIA       NOT AVBL
CLAXTON        NOT AVBL

...CSRA...CENTRAL AND FAR SOUTHEAST GEORGIA...

CITY           SKY/WX    TMP DP  RH WIND       PRES   REMARKS
THOMSON        CLOUDY    90  76  62 CALM      29.99F HX 101
AUGUSTA-BUSH   CLOUDY    89  72  56 N3        29.93F HX  96
AUGUSTA-DANIEL CLOUDY    88  71  57 S6        29.96F HX  94
SWAINSBORO     FAIR      90  72  55 NW3       29.95S HX  96
VIDALIA        CLOUDY    86  72  62 W3        29.95F HX  92
EASTMAN        FAIR      86  77  74 CALM      29.97F HX  97
HAZLEHURST     FAIR      88  72  59 CALM      29.94F HX  95
ALMA           CLOUDY    89  74  60 NW6       29.94F HX  98
WAYCROSS       CLOUDY    91  79  68 NW3       29.94F HX 106
JESUP          MOCLDY    91  77  62 NW3       29.93F HX 105
BAXLEY         FAIR      88  73  62 N3        29.94F HX  96
BRUNSWICK      PTSUNNY   88  73  62 N5        29.93F HX  96
SAINT SIMONS   MOSUNNY   88  73  61 NE10      29.93F HX  95

$$

SCZ027-028-034-036>038-045-046-048>050-GAZ119-141-032000-
...LAKE AND SUPPLEMENTAL COASTAL OBSERVATIONS...

STATION/POSITION TIME  TEMP    WIND        PRES    WAVE   SWELL
                       AIR SEA DIR/SP/G            HT/PER HT/PER/DIR
                 (UTC) (F)     (DEG/KT/KT) (MB)    (FT/S) (FT/S/D)
UPR LAKE MARION  NOT AVBL
WINYAH BAY       1845   85     150/ 10     1012.0F
LAKE MURRAY      1800   88     190/  6/  7 1012.9F
ACE BASIN NERRS  NOT AVBL
FORT PULASKI     1900   83 83   80/  9/ 10 1014.0F
SAPELO ISLAND    1900   88      30/  5     1013.0F

$$

ANZ835-935-AMZ111-154-330-350-352-354-370-450-454-472-032000-
...C-MAN AND BUOY OBSERVATIONS...

STATION/POSITION TIME  TEMP    WIND        PRES    WAVE   SWELL
                       AIR SEA DIR/SP/G            HT/PER HT/PER/DIR
                 (UTC) (F)     (DEG/KT/KT) (MB)    (FT/S) (FT/S/D)
BUOY 41004       1850   81 84  180/  4/  6 1013.5F   2/ 8   2/ 8
BUOY 41008       1850   81 84   20/ 12/ 12 1013.7F   2/ 3   2/110/10
FOLLY BEACH CMAN 1900   81     160/  7/  8 1013.8F
CAPERS NEARSHORE 1808   81     200/ 10/ 12 1014.1F
FRIPP NEARSHORE  1800   84     100/  8/ 10 1013.7F


STATION/POSITION TIME  TEMP    WIND        PRES    WAVE   SWELL
                       AIR SEA DIR/SP/G            HT/PER HT/PER/DIR
                 (UTC) (F)     (DEG/KT/KT) (MB)    (FT/S) (FT/S/D)
5E ST. MARYS GA  1821      85                N/A     2/ 3
FRYING PAN BUOY  1850   82 82  220/ 12/ 14 1013.4F   2/ 8   2/130/ 8
BUOY 41025       1850   80 86  310/  4/  6 1012.8F   1/13   2/ 40/13
CAPE LOOKOUT NC  1900   82     220/  7/  9 1012.4F
BUOY 41002       1850   84 85  290/  8/ 10 1013.5F   2/12   2/100/12
BUOY 41010       1820   85 86  250/ 12/ 14 1014.3F
ST AUGUSTINE FL  1900   82 84   40/  7/  8 1014.7F


$$



USA.gov is the U.S. government's official web portal to all federal, state and local government web resources and services.